K0VXP-1 Weather Reports


time (UTC)temp
C
wind
direction
speed
KPH
gust
KPH
rain 1hr
cm
rain 24hr
cm
rain mn
cm
humidity
%
barometer
mb
20260906223036 25 225 12.9 20.9 0.00 0.00 0.00 31 1023.7
20260906221536 25 321 12.9 20.9 0.00 0.00 0.00 30 1023.7
20260906220040 26 249 6.4 17.7 0.00 0.00 0.00 28 1024.0
20260906214541 26 190 11.3 19.3 0.00 0.00 0.00 28 1024.1
20260906213033 26 248 11.3 25.7 0.00 0.00 0.00 27 1024.2
20260906211538 26 224 12.9 25.7 0.00 0.00 0.00 27 1024.3
20260906210038 27 250 9.7 29.0 0.00 0.00 0.00 26 1024.5
20260906204534 26 255 16.1 33.8 0.00 0.00 0.00 26 1024.7
20260906203036 26 253 16.1 24.1 0.00 0.00 0.00 26 1024.7
20260906201553 26 207 12.9 22.5 0.00 0.00 0.00 26 1025.1
20260906200034 27 265 6.4 22.5 0.00 0.00 0.00 26 1025.2
20260906194540 28 281 9.7 24.1 0.00 0.00 0.00 24 1025.4
20260906193034 27 252 8.0 19.3 0.00 0.00 0.00 24 1025.7
20260906191534 27 241 3.2 17.7 0.00 0.00 0.00 24 1025.7
20260906190036 27 306 3.2 22.5 0.00 0.00 0.00 23 1025.9
20260906184543 26 38 4.8 12.9 0.00 0.00 0.00 24 1026.1
20260906183036 26 215 6.4 19.3 0.00 0.00 0.00 25 1026.4
20260906181553 26 225 9.7 17.7 0.00 0.00 0.00 26 1026.6
20260906180035 25 196 8.0 16.1 0.00 0.00 0.00 27 1027.0
20260906174539 26 146 4.8 12.9 0.00 0.00 0.00 26 1027.4
20260906173034 25 238 8.0 14.5 0.00 0.00 0.00 28 1027.7
20260906171536 25 0 3.2 11.3 0.00 0.00 0.00 27 1027.8
20260906170034 24 230 1.6 9.7 0.00 0.00 0.00 32 1028.0
20260906164534 23 316 0.0 8.0 0.00 0.00 0.00 32 1027.9
20260906163048 22 300 1.6 8.0 0.00 0.00 0.00 37 1028.0
20260906161536 20 252 3.2 8.0 0.00 0.00 0.00 42 1028.2
20260906160039 20 237 3.2 9.7 0.00 0.00 0.00 43 1028.2
20260906154533 19 0 1.6 6.4 0.00 0.00 0.00 43 1028.1
20260906153034 18 248 3.2 11.3 0.00 0.00 0.00 47 1028.2
20260906151538 17 229 3.2 9.7 0.00 0.00 0.00 46 1028.4
20260906150037 17 257 1.6 6.4 0.00 0.00 0.00 46 1028.5
20260906144536 16 223 4.8 9.7 0.00 0.00 0.00 49 1028.5
20260906143045 15 69 0.0 3.2 0.00 0.00 0.00 51 1028.3
20260906141536 12 69 3.2 6.4 0.00 0.00 0.00 60 1028.3
20260906140043 11 67 1.6 9.7 0.00 0.00 0.00 61 1028.5
20260906134538 11 59 6.4 9.7 0.00 0.00 0.00 62 1028.5
20260906133038 11 68 6.4 8.0 0.00 0.00 0.00 62 1028.3
20260906131535 11 37 3.2 6.4 0.00 0.00 0.00 61 1028.1
20260906130035 11 0 0.0 4.8 0.00 0.00 0.00 60 1028.0
20260906124539 11 0 0.0 1.6 0.00 0.00 0.00 59 1028.0
20260906123038 11 71 1.6 6.4 0.00 0.00 0.00 59 1027.8
20260906121536 11 71 1.6 8.0 0.00 0.00 0.00 60 1027.8
20260906120036 11 66 6.4 9.7 0.00 0.00 0.00 60 1027.7
20260906114544 11 77 4.8 6.4 0.00 0.00 0.00 59 1027.7
20260906113035 11 0 0.0 1.6 0.00 0.00 0.00 58 1028.0
20260906111538 12 198 3.2 8.0 0.00 0.00 0.00 57 1028.0
20260906110037 12 175 1.6 4.8 0.00 0.00 0.00 56 1027.7
20260906104537 12 55 4.8 8.0 0.00 0.00 0.00 56 1027.5
20260906103034 12 67 4.8 8.0 0.00 0.00 0.00 56 1027.7
20260906101537 12 76 6.4 11.3 0.00 0.00 0.00 56 1027.7
20260906100037 12 0 0.0 4.8 0.00 0.00 0.00 57 1028.0
20260906094541 12 87 4.8 8.0 0.00 0.00 0.00 56 1027.7
20260906093034 12 74 4.8 6.4 0.00 0.00 0.00 55 1027.5
20260906091540 12 68 3.2 6.4 0.00 0.00 0.00 54 1027.4
20260906090037 12 71 3.2 6.4 0.00 0.00 0.00 53 1027.0
20260906084538 13 67 3.2 6.4 0.00 0.00 0.00 53 1027.1
20260906083035 12 50 4.8 12.9 0.00 0.00 0.00 53 1027.2
20260906081541 13 81 6.4 11.3 0.00 0.00 0.00 52 1027.0
20260906080037 13 69 4.8 9.7 0.00 0.00 0.00 51 1027.2
20260906074534 13 66 6.4 11.3 0.00 0.00 0.00 51 1027.0
20260906073041 14 87 6.4 9.7 0.00 0.00 0.00 49 1027.0
20260906071536 15 73 4.8 12.9 0.00 0.00 0.00 49 1027.1
20260906070037 15 78 4.8 9.7 0.00 0.00 0.00 48 1027.1
20260906064537 15 71 1.6 4.8 0.00 0.00 0.00 47 1027.1
20260906063037 15 75 4.8 8.0 0.00 0.00 0.00 48 1027.2
20260906061538 15 74 6.4 11.3 0.00 0.00 0.00 48 1027.0
20260906060049 15 61 3.2 8.0 0.00 0.00 0.00 48 1027.0
20260906054534 15 66 4.8 9.7 0.00 0.00 0.00 48 1027.0
20260906053038 15 94 8.0 14.5 0.00 0.00 0.00 48 1026.9
20260906051536 15 54 9.7 14.5 0.00 0.00 0.00 49 1026.9
20260906050038 15 73 8.0 14.5 0.00 0.00 0.00 49 1026.9
20260906044535 15 55 8.0 16.1 0.00 0.00 0.00 49 1027.0
20260906043040 15 86 9.7 16.1 0.00 0.00 0.00 49 1027.1
20260906041537 15 71 9.7 14.5 0.00 0.00 0.00 49 1027.0
20260906040040 16 63 9.7 16.1 0.00 0.00 0.00 48 1026.9
20260906034536 16 73 6.4 14.5 0.00 0.00 0.00 47 1026.9
20260906033037 17 71 8.0 12.9 0.00 0.00 0.00 46 1026.7
20260906031603 17 75 6.4 12.9 0.00 0.00 0.00 46 1026.7
20260906030037 18 80 6.4 12.9 0.00 0.00 0.00 44 1026.3
20260906024542 18 74 6.4 14.5 0.00 0.00 0.00 43 1026.2
20260906023048 19 57 3.2 8.0 0.00 0.00 0.00 41 1026.0
20260906021536 20 43 3.2 8.0 0.00 0.00 0.00 39 1025.6
20260906020045 20 19 3.2 6.4 0.00 0.00 0.00 37 1025.5
20260906014539 21 331 3.2 8.0 0.00 0.00 0.00 35 1025.2
20260906013039 23 305 3.2 12.9 0.00 0.00 0.00 33 1025.2
20260906011538 24 276 6.4 14.5 0.00 0.00 0.00 31 1025.3
20260906010038 25 266 8.0 16.1 0.00 0.00 0.00 30 1025.3
20260906004546 25 269 9.7 17.7 0.00 0.00 0.00 30 1025.3
20260906003034 25 231 11.3 20.9 0.00 0.00 0.00 30 1025.2
20260906001544 25 254 12.9 25.7 0.00 0.00 0.00 30 1025.2
20260906000035 25 291 12.9 20.9 0.00 0.00 0.00 30 1025.1
20260905234536 26 294 12.9 30.6 0.00 0.00 0.00 29 1025.2
20260905233043 26 300 9.7 22.5 0.00 0.00 0.00 28 1025.1
20260905231537 27 311 9.7 22.5 0.00 0.00 0.00 28 1025.0
20260905230036 26 263 17.7 29.0 0.00 0.00 0.00 27 1025.0
20260905224534 26 269 16.1 29.0 0.00 0.00 0.00 28 1025.0